SL-14 DEB

Satellite information

Favourite Embed

Satellite Type and Status

DEBRISIN ORBIT

Key statistics

Satellite SL-14 DEB at a glance.

Uptime

13840

Days in orbit

Revolutions

≈ 14.4

Per day

Orbit

LEO

Low Earth Orbit

Inclination

82.5

Latest

Satellite identification and parameters

Extended collection of information and parameters for SL-14 DEB.

Object identification

Identified? True

Debris? True

Object name: SL-14 DEB

International designator: 1987-068CV

Object number (NORAD): 39969

Object ID (CCSDS): 39969

Country: COMMONWEALTH OF INDEPENDENT STATES (CIS)

Current information (Y/N): Y

RCS size: SMALL

Orbital parameters

Period: 99.892 minutes

Inclination: 82.4955 deg

SMA: 7131.502 km

Apoapsis: 760.109 km

Periapsis: 746.624 km

RAAN: 192.9927 deg

Eccentricy: 0.0009454

Argument of periapsis: 170.919 deg

Mean anomaly: 189.2175 deg

Mean motion: 14.41555256 rev/day

Mean motion (dot): 0.0000478 rev/day2

B* drag term: 0.001465 1/REarth

Two-line elements (TLE)

Creation date: July 3, 2025, 10:36 p.m.

Reference frame: TEME

Reference center: EARTH

Epoch: July 3, 2025, 5:37 p.m. UTC

TLE line 0: 0 SL-14 DEB

TLE line 1: 1 39969U 87068CV 25184.73417508 .00004780 00000-0 14650-2 0 9997

TLE line 2: 2 39969 82.4955 192.9927 0009454 170.9190 189.2175 14.41555256148687

Live tracking on map

Real-time ground track for satellite SL-14 DEB.

In-orbit conjunctions

A list of the most updated potential collisions computed for object SL-14 DEB.

Target Orbit TCA Probability of collision Miss distance Type
IRIDIUM 36 LEO 2024-11-13 06:19:16 0.0001567532 307.0 (m) PAYLOAD
FENGYUN 1C DEB SSO 2024-11-09 17:26:04 0.0001980875 465.0 (m) DEBRIS
IRIDIUM 29 LEO 2024-09-20 06:39:34 0.0008099161 17.0 (m) PAYLOAD
NOAA 8 SSO 2024-09-18 03:59:23 0.0003064801 224.0 (m) PAYLOAD
OPAL SSO 2024-09-08 06:12:28 0.0002581964 571.0 (m) PAYLOAD

Associated space launch

Second generation soviet meteorological satellite

SL-14 DEB was lifted into orbit during the mission ‘Tsiklon-3 | Meteor-2 16’, on board a Tsiklon-3 space rocket.

The launch took place on Aug. 18, 1987, 2:27 a.m. from 32/1.

For more information about the launch, click the button.

Launch to space Tsiklon-3 | Meteor-2 16
Tsiklon-3 | Meteor-2 16

Agency: N/A

Status: Launch Successful

Launch date: Aug. 18, 1987, 2:27 a.m. UTC

Rocket: Tsiklon-3

Launch pad: 32/1

Location: Plesetsk Cosmodrome, Russian Federation

...

Latest news about this satellite

There are no fresh news available about this satellite. Check back as we update our databases every day.


Newsletter sign-up

Weekly statistics, charts and insights to help you stay on top of the space industry.